sat.trackr.live / text

‹ back to catalog

ONEWEB-0035

NORAD 45143 · 2020-008N

PAYLOAD ACTIVE UNKNOWN

§ Identity

Operator
Country
UK
Launch date
2020-02-06
Launch site
TYMSC
Launch vehicle
Mass (kg)
RCS (m²)

Purposes: comms

External: N2YO · Heavens-Above · Gunter

§ Orbital elements

Epoch: 2026-09-08T20:05:19.451616Z

Period
109.89 min
Inclination
87.8883°
Eccentricity
0.0001755
Mean motion
13.10371342 rev/d
Perigee alt
1,220.4 km
Apogee alt
1,223.1 km
Semi-major
7,599.9 km
B*
-1.1775e-3
RAAN
19.6100°
Arg perigee
96.7145°
Mean anomaly
263.4182°
Rev number
31,889

§ Raw data

ONEWEB-00351 45143U 20008N   26251.83703069 -.00000398  00000+0 -11775-2 0  99932 45143  87.8883  19.6100 0001755  96.7145 263.4182 13.10371342318898

JSON: /api/v1/satellites/45143 · /tle

For live sub-satellite position, see the globe view (requires WebGL).

§ Visibility from observer

Set your observer location to see the next 7 days of passes ≥ 10°. The values pass through the URL so the page stays shareable.

No JS? Fill the form by hand. The geolocation button needs JavaScript.